TimeCST,TemperatureF,Dew PointF,Humidity,Sea Level PressureIn,VisibilityMPH,Wind Direction,Wind SpeedMPH,Gust SpeedMPH,PrecipitationIn,Events,Conditions,WindDirDegrees,DateUTC
12:51 AM,30.0,21.9,72,30.30,10.0,NE,15.0,-,N/A,,Clear,40,2013-01-21 06:51:00
1:51 AM,28.0,21.0,75,30.31,10.0,NE,16.1,-,N/A,,Clear,40,2013-01-21 07:51:00
2:51 AM,26.1,19.9,78,30.32,10.0,North,6.9,-,N/A,,Clear,10,2013-01-21 08:51:00
3:51 AM,24.1,19.0,81,30.32,10.0,NNE,8.1,-,N/A,,Clear,20,2013-01-21 09:51:00
4:51 AM,23.0,18.0,81,30.32,10.0,NNE,8.1,-,N/A,,Clear,30,2013-01-21 10:51:00
5:51 AM,23.0,18.0,81,30.34,10.0,NNE,5.8,-,N/A,,Clear,20,2013-01-21 11:51:00
6:51 AM,21.9,18.0,85,30.37,10.0,North,5.8,-,N/A,,Clear,350,2013-01-21 12:51:00
7:51 AM,21.0,18.0,88,30.39,10.0,Calm,Calm,-,N/A,,Clear,0,2013-01-21 13:51:00
8:51 AM,23.0,18.0,81,30.41,10.0,North,3.5,-,N/A,,Clear,360,2013-01-21 14:51:00
9:51 AM,26.1,17.1,69,30.42,10.0,North,3.5,-,N/A,,Clear,10,2013-01-21 15:51:00
10:51 AM,28.9,18.0,64,30.42,10.0,Calm,Calm,-,N/A,,Clear,0,2013-01-21 16:51:00
11:51 AM,32.0,19.0,59,30.40,10.0,Calm,Calm,-,N/A,,Clear,0,2013-01-21 17:51:00
12:51 PM,36.0,19.9,52,30.33,10.0,Calm,Calm,-,N/A,,Clear,0,2013-01-21 18:51:00
1:51 PM,41.0,23.0,49,30.28,10.0,SW,5.8,-,N/A,,Clear,220,2013-01-21 19:51:00
2:51 PM,45.0,25.0,46,30.24,10.0,SSW,9.2,-,N/A,,Clear,200,2013-01-21 20:51:00
3:51 PM,46.9,26.1,44,30.22,10.0,SW,8.1,-,N/A,,Clear,230,2013-01-21 21:51:00
4:51 PM,48.0,27.0,44,30.21,10.0,SW,5.8,-,N/A,,Clear,230,2013-01-21 22:51:00
5:51 PM,45.0,26.1,48,30.21,10.0,SSW,4.6,-,N/A,,Clear,210,2013-01-21 23:51:00
6:51 PM,42.1,26.1,53,30.22,10.0,SSW,3.5,-,N/A,,Clear,210,2013-01-22 00:51:00
8:51 PM,37.9,23.0,55,30.23,10.0,South,10.4,-,N/A,,Clear,190,2013-01-22 02:51:00
9:51 PM,37.0,21.9,54,30.22,10.0,South,12.7,-,N/A,,Clear,190,2013-01-22 03:51:00
10:51 PM,35.1,21.9,59,30.22,10.0,SSW,9.2,-,N/A,,Clear,200,2013-01-22 04:51:00
11:51 PM,35.1,21.9,59,30.20,10.0,South,10.4,-,N/A,,Clear,190,2013-01-22 05:51:00